DELTA 1 DEB, 12533

Orbit data source: Space-Track

DELTA 1 DEB, 12533 is space debris in SSO originally from a launch on Thu, 29 Jul 1976 UTC launched from the Air Force Western Test Range (AFWTR). Debris objects in space refer to the collection of defunct objects orbiting the Earth. Examples of debris include non-operational satellites, rocket bodies, and fragments generated from explosions, collisions, or faulty payload assembly.

Loading next visibility...
Identifier
12533, 1976-077DN
Orbit
SSO
Country
Flag of USUS
Related business
Manufacturer
Unknown
Mission
Spacecraft
Bus & Motor
Unknown
Mass
Unknown
Launch date (UTC)
1976-07-29 (50 years ago)
Launch vehicle
Unknown
Launch site
Air Force Western Test Range (AFWTR)
Object type
Payload
Rocket body
Debris
Shape & HBR
Unknown shape, 0.2 m
Radar Cross Section
Small (<0.1 m²)

Expand to show TLE details & history
Last TLE update: 6 hours ago

TLE from 6 hours ago
0 DELTA 1 DEB
1 12533U 76077DN  26068.40026602  .00000308  00000-0  23805-2 0  9994
2 12533 101.7415  36.7273 0059254 110.2346  44.4705 12.47380242143842
Epoch: 2026-03-09T09:36Z
TLE epoch observation values (Epoch: 2026-03-09T09:36:22.984Z)
Latitude
24.28915°
Longitude
-89.10664°
Altitude
1,445.028 km
Speed
7.156 km/s
True Right ascension
14h 48m 19s
True Declination
24° 10' 18"
Sunlit
Object was in full shadow at epoch
Visualization orbit readout
Latitude
Unknown
Longitude
Unknown
Altitude
Unknown
Speed
Unknown
Apparent Right ascension
Unknown
Apparent Declination
Unknown
Sunlit
N/A
Visualization observer readout
Local Sidereal Time
19:58:14
Azimuth
Unknown
Elevation
Unknown
Doppler factor
Unknown
Orbital elements
Apogee altitude
1,519.543 km
Perigee altitude
1,426.5 km
Semi-major axis
7,851.159 km
Eccentricity
0.00593
Inclination
101.7415°
RAAN
36.7273°
Arg. of periapsis
110.2346°
True anomaly
44.94869°
Mean anomaly
44.4705°
Eccentric anomaly
44.70934°
Mean motion
3.11991 °/min
Orbital period
115.39 mins
BSTAR
0.0023805
Loading maneuver chart data...
Computing Atmospheric mass density...
Loading historical data...
Loading historical data...
Loading historical data...
Loading historical data...
Loading historical data...
Loading historical data...
Loading historical data...

Documentation

Showing up to 5 results
|